Kekaha, HI

3:35 AM HST on February 24, 2017 (GMT -1000)
Barking Sands PMRF

Weather History for PHBK - November, 2012

Change the Weather History Date:

Sunday, November 11, 2012

  Actual Average Record
Temperature  
Mean Temperature 76 °F -  
Max Temperature 84 °F 85 °F 89 °F (1974)
Min Temperature 69 °F 65 °F 37 °F (2008)
Cooling Degree Days 12    
Growing Degree Days 26 (Base 50)    
Moisture  
Dew Point 54 °F    
Average Humidity 49    
Maximum Humidity 97    
Minimum Humidity 30    
Precipitation  
Precipitation 0.00 in - - ()
Sea Level Pressure  
Sea Level Pressure 30.04 in    
Wind  
Wind Speed 5 mph (NNE)    
Max Wind Speed 9 mph    
Max Gust Speed -    
Visibility 10 miles    
Events      
Averages and records for this station are not official NWS values.
T = Trace of Precipitation, MM = Missing Value Source: NWS Daily Summary

Daily Weather History Graph

Daily Weather History Graph

Search for Another Location

Airport or City:

Trip Planner

Search our weather history database for the weather conditions in past years. The results will help you decide how hot, cold, wet, or windy it might be!

Date:

Astronomy

Nov. 11, 2012 Rise Set
Actual Time 6:49 AM HST 5:57 PM HST
Civil Twilight 6:25 AM HST 6:20 PM HST
Nautical Twilight 5:58 AM HST 6:47 PM HST
Astronomical Twilight 5:32 AM HST 7:14 PM HST
Moon 4:29 AM HST (11/11) 4:18 PM HST (11/11)
Length of Visible Light 11h 54m
Length of Day
11h 08m
Waning Crescent, 6% of the Moon is Illuminated
Nov 11
Waning Crescent
Nov 13
New
Nov 20
First Quarter
Nov 28
Full
Dec 6
Last Quarter

Hourly Weather History & Observations

Time (HST) Temp. Heat Index Dew Point Humidity Pressure Visibility Wind Dir Wind Speed Gust Speed Precip Events Conditions
12:56 AM 69.1 °F - 39.0 °F 33% 30.04 in 10.0 mi East 4.6 mph - N/A   Clear
1:56 AM 69.1 °F - - N/A% 30.04 in 10.0 mi ENE 3.5 mph - N/A   Scattered Clouds
2:56 AM 71.1 °F - 55.0 °F 57% 30.03 in 10.0 mi ENE 4.6 mph - N/A   Clear
3:56 AM 70.0 °F - 59.0 °F 68% 30.02 in 10.0 mi ESE 3.5 mph - N/A   Clear
4:56 AM 70.0 °F - 69.1 °F 97% 30.02 in 10.0 mi East 4.6 mph - N/A   Partly Cloudy
5:56 AM 70.0 °F - - N/A% 30.03 in 10.0 mi ENE 4.6 mph - N/A   Clear
6:56 AM 70.0 °F - - N/A% 30.05 in 10.0 mi East 3.5 mph - N/A   Clear
7:56 AM 75.0 °F - - N/A% 30.07 in 10.0 mi Calm Calm - N/A   Clear
8:56 AM 80.1 °F - - N/A% 30.07 in 10.0 mi Calm Calm - N/A   Clear
9:56 AM 79.0 °F - 64.0 °F 60% 30.08 in 10.0 mi WNW 5.8 mph - N/A   Scattered Clouds
10:56 AM 81.0 °F 82.7 °F 64.9 °F 58% 30.06 in 10.0 mi NW 9.2 mph - N/A   Clear
11:56 AM 82.0 °F 81.6 °F 55.9 °F 41% 30.04 in 10.0 mi West 8.1 mph - N/A   Partly Cloudy
12:56 PM 82.9 °F - - N/A% 30.03 in 10.0 mi WNW 8.1 mph - N/A   Partly Cloudy
1:56 PM 84.0 °F 82.6 °F 54.0 °F 35% 30.00 in 10.0 mi WNW 9.2 mph - N/A   Scattered Clouds
2:56 PM 82.9 °F 84.0 °F 63.0 °F 51% 29.99 in 10.0 mi WNW 8.1 mph - N/A   Partly Cloudy
3:56 PM 84.0 °F - - N/A% 29.99 in 10.0 mi West 6.9 mph - N/A   Clear
4:56 PM 82.9 °F 88.8 °F 73.0 °F 72% 30.00 in 10.0 mi WNW 6.9 mph - N/A   Clear
5:56 PM 81.0 °F - - N/A% 30.01 in 10.0 mi North 4.6 mph - N/A   Clear
6:56 PM 78.1 °F - 50.0 °F 37% 30.04 in 10.0 mi ENE 9.2 mph - N/A   Clear
7:56 PM 75.9 °F - 51.1 °F 42% 30.06 in 10.0 mi NNE 4.6 mph - N/A   Clear
8:56 PM 75.0 °F - 43.0 °F 32% 30.08 in 10.0 mi East 3.5 mph - N/A   Clear
9:56 PM 73.9 °F - 42.1 °F 32% 30.09 in 10.0 mi Calm Calm - N/A   Clear
10:56 PM 71.1 °F - 37.9 °F 30% 30.10 in 10.0 mi Calm Calm - N/A   Clear
11:56 PM 69.1 °F - 37.9 °F 32% 30.10 in 10.0 mi Calm Calm - N/A   Clear